Location: Unspecified
(58.7730°N, 5.8460°E)
Time: 14:54:27
(UTC+02:00)

Cosmos 2058 - Visible Passes

Search period start: 03 September 2015 00:00
Search period end: 13 September 2015 00:00
Orbit: 566 x 588 km, 82.5° (Epoch: 02 September)

Date Brightness Start Highest point End Pass type
(mag) Time Alt. Az. Time Alt. Az. Time Alt. Az.
03 Sep 3.0 00:34:27 10° NNW 00:38:39 67° W 00:38:59 63° SW visible
03 Sep 5.4 02:13:16 10° NW 02:14:55 12° W 02:15:15 12° W visible
03 Sep 4.3 23:01:54 10° N 23:05:33 27° ENE 23:06:51 23° E visible
04 Sep 3.3 00:38:43 10° NNW 00:42:51 53° W 00:43:07 52° WSW visible
04 Sep 4.0 23:06:01 10° N 23:09:53 33° ENE 23:10:59 29° E visible
05 Sep 3.7 00:43:00 10° NNW 00:47:02 42° W 00:47:16 42° WSW visible
05 Sep 3.6 23:10:10 10° N 23:14:12 40° ENE 23:15:08 35° E visible
06 Sep 4.1 00:47:20 10° NNW 00:51:11 34° W 00:51:25 34° W visible
06 Sep 5.2 21:38:52 10° NNE 21:40:21 12° NE 21:41:57 10° ENE visible
06 Sep 3.3 23:14:21 10° N 23:18:29 50° ENE 23:19:18 43° ESE visible
07 Sep 4.4 00:51:41 10° NNW 00:55:20 28° W 00:55:34 27° W visible
07 Sep 5.1 21:42:37 10° NNE 21:44:46 14° NE 21:47:03 10° E visible
07 Sep 3.0 23:18:31 10° N 23:22:45 62° ENE 23:23:28 52° ESE visible
08 Sep 4.7 00:56:06 10° NW 00:59:27 23° W 00:59:45 22° W visible
08 Sep 4.9 21:46:32 10° NNE 21:49:11 16° NE 21:51:22 12° E visible
08 Sep 2.9 23:22:44 10° NNW 23:27:00 77° ENE 23:27:39 62° SE visible
09 Sep 5.0 01:00:34 10° NW 01:03:33 18° W 01:03:55 18° W visible
09 Sep 4.7 21:50:31 10° N 21:53:35 19° NE 21:55:33 15° E visible
09 Sep 2.9 23:26:57 10° NNW 23:31:14 85° WSW 23:31:50 65° S visible
10 Sep 5.3 01:05:08 10° NW 01:07:38 15° W 01:08:06 15° W visible
10 Sep 4.5 21:54:34 10° N 21:57:57 23° ENE 21:59:44 18° E visible
10 Sep 3.1 23:31:11 10° NNW 23:35:26 68° W 23:36:01 59° SSW visible
11 Sep 5.5 01:09:54 10° NW 01:11:42 12° W 01:12:18 12° W visible
11 Sep 4.2 21:58:39 10° N 22:02:18 27° ENE 22:03:56 21° E visible
11 Sep 3.4 23:35:27 10° NNW 23:39:37 54° W 23:40:13 49° SW visible
12 Sep 3.9 22:02:46 10° N 22:06:37 32° ENE 22:08:08 25° ESE visible
12 Sep 3.8 23:39:44 10° NNW 23:43:47 43° W 23:44:26 40° WSW visible
